Weather in Bogoslovka

Russia / Penza Oblast     53°12′46″N   44°48′21″E
temp.,
°C
wind,
m/s
gust,
m/s
humid.,
%
clouds,
%
prec.,
mm/h
press.,
hPa
HPBL,
m
8 march, mon
mon800:00−3sw101694100 0.4 998926
03:00−4wsw71483100 0.9 998713
06:00−8wsw6148556 0.0 1000367
09:00−7wsw6138828 0.0 1002456
12:00−3sw7118631 0.0 10011030
15:00−3wsw8139065 0.4 10011243
18:00−6w6138399 0.3 1003596
21:00−11w499049 0.3 1007147
9 march, tue
tue900:00−14w44940 0.0 100966
03:00−15wnw23950 0.0 101022
06:00−17wsw229714 0.0 101120
09:00−13wnw129334 0.0 101287
12:00−9nw228985 0.0 1011315
15:00−8wnw349193 0.1 1012421
18:00−11nw4894100 0.2 1012296
21:00−13nnw51094100 0.3 1014284
10 march, wed
wed1000:00−16nw349789 0.1 101683
03:00−20nw479860 0.1 1017117
06:00−21nw499933 0.0 1019170
09:00−20nw589661 0.1 1021278
12:00−16nnw5790100 0.0 1022589
15:00−16nw5789100 0.1 1023694
18:00−20nw4896100 0.1 1024181
21:00−24nnw4499100 0.1 102776
11 march, thu
thu1100:00−26nnw349828 0.0 102750
03:00−27nnw349815 0.0 102933
06:00−28nw34982 0.0 103037
09:00−23nw35961 0.0 1031173
12:00−18nw359121 0.0 1030287
15:00−16wnw478917 0.0 1030395
18:00−19wnw44964 0.0 103078
21:00−20wnw359712 0.0 103281
12 march, fri
fri1200:00−20wnw339780 0.0 103335
03:00−21nw339879 0.0 103330
06:00−22wnw229760 0.0 103420
09:00−18wsw119030 0.0 103492
12:00−14ssw23830 0.0 1033261
15:00−12ssw35850 0.0 1031285
18:00−16s449218 0.0 103061
21:00−18s498859 0.0 1030165